contact:dominique.lefevre@mio.osupytheas.fr, maurice.libes@osupytheas.fr, didier.mallarino@osupytheas.fr
Project:EMSO http://www.emso-fr.org/EMSO-France
Depth: 2436.0 m
Title:EMSO Ligure Ouest : Data MII capteur MICROCAT
DateTime_Computer,Latitude,Longitude,Temperature,Conductivity,Pressure,DateTime_Instrument
DateTime_Computer,Latitude,Longitude,degC,S m-1,dbar,DateTime_Instrument
2020-06-05T00:01:42Z,42.805,6.029,13.2970,4.59973,2470.017,2020-6-05T02:02:25Z
2020-06-05T00:04:45Z,42.805,6.029,13.2975,4.59973,2470.063,2020-6-05T02:05:28Z
2020-06-05T00:07:48Z,42.805,6.029,13.2971,4.59972,2470.026,2020-6-05T02:08:32Z
2020-06-05T00:10:51Z,42.805,6.029,13.2971,4.59973,2470.03,2020-6-05T02:11:35Z
2020-06-05T00:13:54Z,42.805,6.029,13.2971,4.59973,2470.04,2020-6-05T02:14:38Z
2020-06-05T00:16:58Z,42.805,6.029,13.2973,4.59972,2470.04,2020-6-05T02:17:41Z
2020-06-05T00:20:01Z,42.805,6.029,13.2971,4.59973,2470.03,2020-6-05T02:20:44Z
2020-06-05T00:23:04Z,42.805,6.029,13.2976,4.59973,2470.04,2020-6-05T02:23:48Z
2020-06-05T00:26:07Z,42.805,6.029,13.2971,4.59973,2470.017,2020-6-05T02:26:51Z
2020-06-05T00:29:11Z,42.805,6.029,13.2975,4.59972,2470.053,2020-6-05T02:29:54Z
2020-06-05T00:32:14Z,42.805,6.029,13.2974,4.59973,2470.03,2020-6-05T02:32:58Z
2020-06-05T00:35:17Z,42.805,6.029,13.2971,4.59973,2470.017,2020-6-05T02:36:01Z
2020-06-05T00:38:21Z,42.805,6.029,13.2970,4.59973,2470.03,2020-6-05T02:39:04Z
2020-06-05T00:41:24Z,42.805,6.029,13.2970,4.59973,2470.04,2020-6-05T02:42:08Z
2020-06-05T00:44:27Z,42.805,6.029,13.2971,4.59972,2470.017,2020-6-05T02:45:11Z
2020-06-05T00:47:30Z,42.805,6.029,13.2972,4.59973,2470.04,2020-6-05T02:48:14Z
2020-06-05T00:50:34Z,42.805,6.029,13.2976,4.59973,2470.03,2020-6-05T02:51:17Z
2020-06-05T00:53:37Z,42.805,6.029,13.2972,4.59973,2470.04,2020-6-05T02:54:21Z
2020-06-05T00:56:40Z,42.805,6.029,13.2968,4.59972,2470.04,2020-6-05T02:57:24Z
2020-06-05T00:59:43Z,42.805,6.029,13.2968,4.59975,2470.017,2020-6-05T03:00:27Z
2020-06-05T01:02:47Z,42.805,6.029,13.2972,4.59972,2469.993,2020-6-05T03:03:30Z
2020-06-05T01:05:50Z,42.805,6.029,13.2971,4.59973,2469.993,2020-6-05T03:06:34Z
2020-06-05T01:08:53Z,42.805,6.029,13.2975,4.59972,2470.017,2020-6-05T03:09:37Z
2020-06-05T01:11:56Z,42.805,6.029,13.2970,4.59973,2469.993,2020-6-05T03:12:40Z
2020-06-05T01:15:00Z,42.805,6.029,13.2973,4.59973,2469.993,2020-6-05T03:15:43Z
2020-06-05T01:18:03Z,42.805,6.029,13.2974,4.59973,2469.993,2020-6-05T03:18:46Z
2020-06-05T01:21:06Z,42.805,6.029,13.2971,4.59973,2469.993,2020-6-05T03:21:50Z
2020-06-05T01:24:09Z,42.805,6.029,13.2974,4.59972,2470.04,2020-6-05T03:24:53Z
2020-06-05T01:27:12Z,42.805,6.029,13.2968,4.59973,2469.993,2020-6-05T03:27:56Z
2020-06-05T01:30:16Z,42.805,6.029,13.2971,4.59973,2470.017,2020-6-05T03:30:59Z
2020-06-05T01:33:19Z,42.805,6.029,13.2971,4.59973,2470.053,2020-6-05T03:34:03Z
2020-06-05T01:36:22Z,42.805,6.029,13.2973,4.59973,2470.04,2020-6-05T03:37:06Z
2020-06-05T01:39:26Z,42.805,6.029,13.2973,4.59973,2470.03,2020-6-05T03:40:09Z
2020-06-05T01:42:29Z,42.805,6.029,13.2974,4.59973,2470.007,2020-6-05T03:43:12Z
2020-06-05T01:45:32Z,42.805,6.029,13.2972,4.59973,2470.03,2020-6-05T03:46:16Z
2020-06-05T01:48:35Z,42.805,6.029,13.2971,4.59974,2470.053,2020-6-05T03:49:19Z
2020-06-05T01:51:38Z,42.805,6.029,13.2973,4.59973,2470.017,2020-6-05T03:52:22Z
2020-06-05T01:54:42Z,42.805,6.029,13.2974,4.59973,2470.03,2020-6-05T03:55:25Z
2020-06-05T01:57:45Z,42.805,6.029,13.2968,4.59973,2470.03,2020-6-05T03:58:28Z
2020-06-05T02:00:48Z,42.805,6.029,13.2971,4.59974,2470.077,2020-6-05T04:01:32Z
2020-06-05T02:03:51Z,42.805,6.029,13.2971,4.59973,2470.017,2020-6-05T04:04:35Z
2020-06-05T02:06:55Z,42.805,6.029,13.2974,4.59973,2470.017,2020-6-05T04:07:38Z
2020-06-05T02:09:58Z,42.805,6.029,13.2972,4.59975,2470.04,2020-6-05T04:10:41Z
2020-06-05T02:13:01Z,42.805,6.029,13.2974,4.59973,2470.063,2020-6-05T04:13:44Z
2020-06-05T02:16:04Z,42.805,6.029,13.2975,4.59973,2470.063,2020-6-05T04:16:48Z
2020-06-05T02:19:07Z,42.805,6.029,13.2971,4.59973,2470.04,2020-6-05T04:19:51Z
2020-06-05T02:22:11Z,42.805,6.029,13.2976,4.59973,2470.04,2020-6-05T04:22:54Z
2020-06-05T02:25:14Z,42.805,6.029,13.2974,4.59973,2470.017,2020-6-05T04:25:57Z
2020-06-05T02:28:17Z,42.805,6.029,13.2974,4.59973,2470.04,2020-6-05T04:29:01Z
2020-06-05T02:31:20Z,42.805,6.029,13.2975,4.59973,2470.053,2020-6-05T04:32:04Z
2020-06-05T02:34:24Z,42.805,6.029,13.2974,4.59973,2470.04,2020-6-05T04:35:07Z
2020-06-05T02:37:27Z,42.805,6.029,13.2970,4.59974,2470.017,2020-6-05T04:38:10Z
2020-06-05T02:40:30Z,42.805,6.029,13.2968,4.59973,2470.063,2020-6-05T04:41:14Z
2020-06-05T02:43:33Z,42.805,6.029,13.2973,4.59973,2470.017,2020-6-05T04:44:17Z
2020-06-05T02:46:37Z,42.805,6.029,13.2971,4.59972,2470.063,2020-6-05T04:47:20Z
2020-06-05T02:49:40Z,42.805,6.029,13.2971,4.59973,2470.017,2020-6-05T04:50:23Z
2020-06-05T02:52:43Z,42.805,6.029,13.2974,4.59973,2470.063,2020-6-05T04:53:27Z
2020-06-05T02:55:47Z,42.805,6.029,13.2976,4.59973,2470.053,2020-6-05T04:56:30Z
2020-06-05T02:58:50Z,42.805,6.029,13.2976,4.59974,2470.04,2020-6-05T04:59:33Z
2020-06-05T03:01:53Z,42.805,6.029,13.2974,4.59973,2470.04,2020-6-05T05:02:37Z
2020-06-05T03:04:56Z,42.805,6.029,13.2971,4.59975,2470.077,2020-6-05T05:05:40Z
2020-06-05T03:08:00Z,42.805,6.029,13.2976,4.59973,2470.077,2020-6-05T05:08:43Z
2020-06-05T03:11:03Z,42.805,6.029,13.2971,4.59973,2470.063,2020-6-05T05:11:46Z
2020-06-05T03:14:06Z,42.805,6.029,13.2970,4.59973,2470.087,2020-6-05T05:14:50Z
2020-06-05T03:17:09Z,42.805,6.029,13.2976,4.59973,2470.063,2020-6-05T05:17:53Z
2020-06-05T03:20:13Z,42.805,6.029,13.2973,4.59973,2470.1,2020-6-05T05:20:56Z
2020-06-05T03:23:16Z,42.805,6.029,13.2971,4.59973,2470.1,2020-6-05T05:24:00Z
2020-06-05T03:26:19Z,42.805,6.029,13.2969,4.59974,2470.087,2020-6-05T05:27:03Z
2020-06-05T03:29:22Z,42.805,6.029,13.2969,4.59974,2470.063,2020-6-05T05:30:06Z
2020-06-05T03:32:26Z,42.805,6.029,13.2974,4.59973,2470.063,2020-6-05T05:33:09Z
2020-06-05T03:35:29Z,42.805,6.029,13.2974,4.59973,2470.077,2020-6-05T05:36:13Z
2020-06-05T03:38:32Z,42.805,6.029,13.2971,4.59973,2470.077,2020-6-05T05:39:16Z
2020-06-05T03:41:35Z,42.805,6.029,13.2969,4.59974,2470.1,2020-6-05T05:42:19Z
2020-06-05T03:44:39Z,42.805,6.029,13.2969,4.59973,2470.087,2020-6-05T05:45:22Z
2020-06-05T03:47:42Z,42.805,6.029,13.2971,4.59975,2470.1,2020-6-05T05:48:25Z
2020-06-05T03:50:45Z,42.805,6.029,13.2972,4.59974,2470.11,2020-6-05T05:51:29Z
2020-06-05T03:53:48Z,42.805,6.029,13.2972,4.59973,2470.087,2020-6-05T05:54:32Z
2020-06-05T03:56:51Z,42.805,6.029,13.2974,4.59974,2470.087,2020-6-05T05:57:35Z
2020-06-05T03:59:55Z,42.805,6.029,13.2974,4.59973,2470.087,2020-6-05T06:00:38Z
2020-06-05T04:02:58Z,42.805,6.029,13.2972,4.59975,2470.11,2020-6-05T06:03:42Z
2020-06-05T04:06:01Z,42.805,6.029,13.2972,4.59973,2470.124,2020-6-05T06:06:45Z
2020-06-05T04:09:04Z,42.805,6.029,13.2971,4.59973,2470.1,2020-6-05T06:09:48Z
2020-06-05T04:12:08Z,42.805,6.029,13.2975,4.59973,2470.124,2020-6-05T06:12:51Z
2020-06-05T04:15:11Z,42.805,6.029,13.2971,4.59973,2470.124,2020-6-05T06:15:54Z
2020-06-05T04:18:14Z,42.805,6.029,13.2971,4.59975,2470.11,2020-6-05T06:18:58Z
2020-06-05T04:21:17Z,42.805,6.029,13.2971,4.59974,2470.11,2020-6-05T06:22:01Z
2020-06-05T04:24:21Z,42.805,6.029,13.2975,4.59974,2470.124,2020-6-05T06:25:04Z
2020-06-05T04:27:24Z,42.805,6.029,13.2971,4.59973,2470.124,2020-6-05T06:28:07Z
2020-06-05T04:30:27Z,42.805,6.029,13.2969,4.59973,2470.133,2020-6-05T06:31:11Z
2020-06-05T04:33:30Z,42.805,6.029,13.2975,4.59973,2470.124,2020-6-05T06:34:14Z
2020-06-05T04:36:33Z,42.805,6.029,13.2974,4.59973,2470.124,2020-6-05T06:37:17Z
2020-06-05T04:39:37Z,42.805,6.029,13.2971,4.59973,2470.133,2020-6-05T06:40:20Z
2020-06-05T04:42:40Z,42.805,6.029,13.2974,4.59973,2470.156,2020-6-05T06:43:23Z
2020-06-05T04:45:43Z,42.805,6.029,13.2970,4.59974,2470.194,2020-6-05T06:46:27Z
2020-06-05T04:48:46Z,42.805,6.029,13.2973,4.59973,2470.133,2020-6-05T06:49:30Z
2020-06-05T04:51:50Z,42.805,6.029,13.2967,4.59975,2470.147,2020-6-05T06:52:33Z
2020-06-05T04:54:53Z,42.805,6.029,13.2974,4.59973,2470.18,2020-6-05T06:55:36Z
2020-06-05T04:57:56Z,42.805,6.029,13.2974,4.59974,2470.203,2020-6-05T06:58:40Z
2020-06-05T05:00:59Z,42.805,6.029,13.2974,4.59974,2470.133,2020-6-05T07:01:43Z
2020-06-05T05:04:02Z,42.805,6.029,13.2974,4.59973,2470.147,2020-6-05T07:04:46Z
2020-06-05T05:07:06Z,42.805,6.029,13.2975,4.59974,2470.147,2020-6-05T07:07:49Z
2020-06-05T05:10:09Z,42.805,6.029,13.2974,4.59973,2470.147,2020-6-05T07:10:52Z
2020-06-05T05:13:12Z,42.805,6.029,13.2974,4.59974,2470.156,2020-6-05T07:13:56Z
2020-06-05T05:16:15Z,42.805,6.029,13.2974,4.59975,2470.156,2020-6-05T07:16:59Z
2020-06-05T05:19:19Z,42.805,6.029,13.2972,4.59973,2470.171,2020-6-05T07:20:02Z
2020-06-05T05:22:22Z,42.805,6.029,13.2971,4.59975,2470.156,2020-6-05T07:23:05Z
2020-06-05T05:25:25Z,42.805,6.029,13.2971,4.59973,2470.171,2020-6-05T07:26:09Z
2020-06-05T05:28:28Z,42.805,6.029,13.2973,4.59975,2470.156,2020-6-05T07:29:12Z
2020-06-05T05:31:31Z,42.805,6.029,13.2974,4.59973,2470.143,2020-6-05T07:32:15Z
2020-06-05T05:34:35Z,42.805,6.029,13.2974,4.59974,2470.171,2020-6-05T07:35:18Z
2020-06-05T05:37:38Z,42.805,6.029,13.2971,4.59973,2470.156,2020-6-05T07:38:21Z
2020-06-05T05:40:41Z,42.805,6.029,13.2974,4.59976,2470.171,2020-6-05T07:41:25Z
2020-06-05T05:43:44Z,42.805,6.029,13.2970,4.59973,2470.18,2020-6-05T07:44:28Z
2020-06-05T05:46:48Z,42.805,6.029,13.2974,4.59976,2470.217,2020-6-05T07:47:31Z
2020-06-05T05:49:51Z,42.805,6.029,13.2971,4.59974,2470.133,2020-6-05T07:50:34Z
2020-06-05T05:52:54Z,42.805,6.029,13.2974,4.59974,2470.194,2020-6-05T07:53:38Z
2020-06-05T05:55:57Z,42.805,6.029,13.2973,4.59974,2470.156,2020-6-05T07:56:41Z
2020-06-05T05:59:01Z,42.805,6.029,13.2976,4.59974,2470.156,2020-6-05T07:59:44Z
2020-06-05T06:02:04Z,42.805,6.029,13.2975,4.59973,2470.194,2020-6-05T08:02:47Z
2020-06-05T06:05:07Z,42.805,6.029,13.2975,4.59973,2470.171,2020-6-05T08:05:51Z
2020-06-05T06:08:11Z,42.805,6.029,13.2974,4.59973,2470.18,2020-6-05T08:08:54Z
2020-06-05T06:11:14Z,42.805,6.029,13.2974,4.59975,2470.203,2020-6-05T08:11:57Z
2020-06-05T06:14:17Z,42.805,6.029,13.2970,4.59975,2470.171,2020-6-05T08:15:01Z
2020-06-05T06:17:20Z,42.805,6.029,13.2972,4.59975,2470.18,2020-6-05T08:18:04Z
2020-06-05T06:20:24Z,42.805,6.029,13.2978,4.59975,2470.18,2020-6-05T08:21:07Z
2020-06-05T06:23:27Z,42.805,6.029,13.2971,4.59974,2470.194,2020-6-05T08:24:10Z
2020-06-05T06:26:30Z,42.805,6.029,13.2972,4.59973,2470.203,2020-6-05T08:27:14Z
2020-06-05T06:29:33Z,42.805,6.029,13.2974,4.59973,2470.156,2020-6-05T08:30:17Z
2020-06-05T06:32:36Z,42.805,6.029,13.2975,4.59974,2470.156,2020-6-05T08:33:20Z
2020-06-05T06:35:40Z,42.805,6.029,13.2973,4.59974,2470.156,2020-6-05T08:36:23Z
2020-06-05T06:38:43Z,42.805,6.029,13.2972,4.59974,2470.18,2020-6-05T08:39:27Z
2020-06-05T06:41:46Z,42.805,6.029,13.2974,4.59973,2470.156,2020-6-05T08:42:30Z
2020-06-05T06:44:49Z,42.805,6.029,13.2973,4.59974,2470.18,2020-6-05T08:45:33Z
2020-06-05T06:47:53Z,42.805,6.029,13.2973,4.59973,2470.18,2020-6-05T08:48:36Z
2020-06-05T06:50:56Z,42.805,6.029,13.2974,4.59973,2470.18,2020-6-05T08:51:39Z
2020-06-05T06:53:59Z,42.805,6.029,13.2974,4.59974,2470.156,2020-6-05T08:54:43Z
2020-06-05T06:57:02Z,42.805,6.029,13.2976,4.59974,2470.18,2020-6-05T08:57:46Z
2020-06-05T07:00:06Z,42.805,6.029,13.2975,4.59973,2470.18,2020-6-05T09:00:49Z
2020-06-05T07:03:09Z,42.805,6.029,13.2974,4.59974,2470.156,2020-6-05T09:03:53Z
2020-06-05T07:06:12Z,42.805,6.029,13.2974,4.59973,2470.156,2020-6-05T09:06:56Z
2020-06-05T07:09:15Z,42.805,6.029,13.2973,4.59974,2470.194,2020-6-05T09:09:59Z
2020-06-05T07:12:19Z,42.805,6.029,13.2971,4.59974,2470.203,2020-6-05T09:13:02Z
2020-06-05T07:15:22Z,42.805,6.029,13.2974,4.59975,2470.156,2020-6-05T09:16:06Z
2020-06-05T07:18:25Z,42.805,6.029,13.2974,4.59974,2470.156,2020-6-05T09:19:09Z
2020-06-05T07:21:29Z,42.805,6.029,13.2973,4.59975,2470.18,2020-6-05T09:22:12Z
2020-06-05T07:24:32Z,42.805,6.029,13.2970,4.59974,2470.18,2020-6-05T09:25:15Z
2020-06-05T07:27:35Z,42.805,6.029,13.2968,4.59974,2470.156,2020-6-05T09:28:19Z
2020-06-05T07:30:38Z,42.805,6.029,13.2974,4.59975,2470.147,2020-6-05T09:31:22Z
2020-06-05T07:33:42Z,42.805,6.029,13.2970,4.59974,2470.156,2020-6-05T09:34:25Z
2020-06-05T07:36:45Z,42.805,6.029,13.2971,4.59975,2470.156,2020-6-05T09:37:28Z
2020-06-05T07:39:48Z,42.805,6.029,13.2965,4.59973,2470.171,2020-6-05T09:40:32Z
2020-06-05T07:42:51Z,42.805,6.029,13.2976,4.59974,2470.18,2020-6-05T09:43:35Z
2020-06-05T07:45:54Z,42.805,6.029,13.2971,4.59975,2470.171,2020-6-05T09:46:38Z
2020-06-05T07:48:58Z,42.805,6.029,13.2974,4.59974,2470.133,2020-6-05T09:49:41Z
2020-06-05T07:52:01Z,42.805,6.029,13.2971,4.59973,2470.156,2020-6-05T09:52:45Z
2020-06-05T07:55:04Z,42.805,6.029,13.2974,4.59973,2470.133,2020-6-05T09:55:48Z
2020-06-05T07:58:08Z,42.805,6.029,13.2974,4.59974,2470.143,2020-6-05T09:58:51Z
2020-06-05T08:01:11Z,42.805,6.029,13.2975,4.59975,2470.156,2020-6-05T10:01:55Z
2020-06-05T08:04:14Z,42.805,6.029,13.2973,4.59975,2470.11,2020-6-05T10:04:58Z
2020-06-05T08:07:17Z,42.805,6.029,13.2972,4.59974,2470.133,2020-6-05T10:08:01Z
2020-06-05T08:10:21Z,42.805,6.029,13.2972,4.59973,2470.147,2020-6-05T10:11:04Z
2020-06-05T08:13:24Z,42.805,6.029,13.2974,4.59973,2470.124,2020-6-05T10:14:08Z
2020-06-05T08:16:27Z,42.805,6.029,13.2971,4.59973,2470.133,2020-6-05T10:17:11Z
2020-06-05T08:19:30Z,42.805,6.029,13.2976,4.59975,2470.133,2020-6-05T10:20:14Z
2020-06-05T08:22:34Z,42.805,6.029,13.2973,4.59973,2470.147,2020-6-05T10:23:17Z
2020-06-05T08:25:37Z,42.805,6.029,13.2975,4.59973,2470.156,2020-6-05T10:26:20Z
2020-06-05T08:28:40Z,42.805,6.029,13.2973,4.59973,2470.147,2020-6-05T10:29:24Z
2020-06-05T08:31:43Z,42.805,6.029,13.2974,4.59973,2470.133,2020-6-05T10:32:27Z
2020-06-05T08:34:47Z,42.805,6.029,13.2972,4.59973,2470.11,2020-6-05T10:35:30Z
2020-06-05T08:37:50Z,42.805,6.029,13.2971,4.59973,2470.133,2020-6-05T10:38:33Z
2020-06-05T08:40:53Z,42.805,6.029,13.2971,4.59974,2470.119,2020-6-05T10:41:37Z
2020-06-05T08:43:56Z,42.805,6.029,13.2974,4.59973,2470.147,2020-6-05T10:44:40Z
2020-06-05T08:46:59Z,42.805,6.029,13.2974,4.59973,2470.11,2020-6-05T10:47:43Z
2020-06-05T08:50:03Z,42.805,6.029,13.2976,4.59973,2470.147,2020-6-05T10:50:46Z
2020-06-05T08:53:06Z,42.805,6.029,13.2973,4.59974,2470.087,2020-6-05T10:53:50Z
2020-06-05T08:56:09Z,42.805,6.029,13.2977,4.59973,2470.11,2020-6-05T10:56:53Z
2020-06-05T08:59:12Z,42.805,6.029,13.2970,4.59974,2470.124,2020-6-05T10:59:56Z
2020-06-05T09:02:16Z,42.805,6.029,13.2974,4.59973,2470.124,2020-6-05T11:02:59Z
2020-06-05T09:05:19Z,42.805,6.029,13.2972,4.59973,2470.1,2020-6-05T11:06:02Z
2020-06-05T09:08:22Z,42.805,6.029,13.2971,4.59973,2470.087,2020-6-05T11:09:06Z
2020-06-05T09:11:25Z,42.805,6.029,13.2971,4.59973,2470.1,2020-6-05T11:12:09Z
2020-06-05T09:14:29Z,42.805,6.029,13.2974,4.59973,2470.087,2020-6-05T11:15:12Z
2020-06-05T09:17:32Z,42.805,6.029,13.2974,4.59974,2470.077,2020-6-05T11:18:15Z
2020-06-05T09:20:35Z,42.805,6.029,13.2971,4.59974,2470.087,2020-6-05T11:21:19Z
2020-06-05T09:23:38Z,42.805,6.029,13.2973,4.59973,2470.1,2020-6-05T11:24:22Z
2020-06-05T09:26:42Z,42.805,6.029,13.2971,4.59973,2470.063,2020-6-05T11:27:25Z
2020-06-05T09:29:45Z,42.805,6.029,13.2967,4.59974,2470.04,2020-6-05T11:30:28Z
2020-06-05T09:32:48Z,42.805,6.029,13.2973,4.59973,2470.063,2020-6-05T11:33:32Z
2020-06-05T09:35:51Z,42.805,6.029,13.2969,4.59974,2470.063,2020-6-05T11:36:35Z
2020-06-05T09:38:55Z,42.805,6.029,13.2974,4.59975,2470.077,2020-6-05T11:39:38Z
2020-06-05T09:41:58Z,42.805,6.029,13.2971,4.59973,2470.087,2020-6-05T11:42:42Z
2020-06-05T09:45:01Z,42.805,6.029,13.2973,4.59973,2470.087,2020-6-05T11:45:45Z
2020-06-05T09:48:04Z,42.805,6.029,13.2974,4.59974,2470.077,2020-6-05T11:48:48Z
2020-06-05T09:51:08Z,42.805,6.029,13.2970,4.59973,2470.063,2020-6-05T11:51:51Z
2020-06-05T09:54:11Z,42.805,6.029,13.2973,4.59973,2470.063,2020-6-05T11:54:54Z
2020-06-05T09:57:14Z,42.805,6.029,13.2975,4.59973,2470.053,2020-6-05T11:57:58Z
2020-06-05T10:00:17Z,42.805,6.029,13.2973,4.59973,2470.1,2020-6-05T12:01:01Z
2020-06-05T10:03:20Z,42.805,6.029,13.2973,4.59973,2470.017,2020-6-05T12:04:04Z
2020-06-05T10:06:24Z,42.805,6.029,13.2973,4.59974,2470.053,2020-6-05T12:07:07Z
2020-06-05T10:09:27Z,42.805,6.029,13.2971,4.59974,2470.077,2020-6-05T12:10:10Z
2020-06-05T10:12:30Z,42.805,6.029,13.2971,4.59973,2470.017,2020-6-05T12:13:14Z
2020-06-05T10:15:33Z,42.805,6.029,13.2970,4.59973,2470.04,2020-6-05T12:16:17Z
2020-06-05T10:18:37Z,42.805,6.029,13.2973,4.59973,2470.04,2020-6-05T12:19:20Z
2020-06-05T10:21:40Z,42.805,6.029,13.2974,4.59974,2470.04,2020-6-05T12:22:23Z
2020-06-05T10:24:43Z,42.805,6.029,13.2971,4.59973,2470.04,2020-6-05T12:25:27Z
2020-06-05T10:27:46Z,42.805,6.029,13.2971,4.59974,2470.04,2020-6-05T12:28:30Z
2020-06-05T10:30:50Z,42.805,6.029,13.2973,4.59973,2470.053,2020-6-05T12:31:33Z
2020-06-05T10:33:53Z,42.805,6.029,13.2974,4.59974,2470.007,2020-6-05T12:34:37Z
2020-06-05T10:36:56Z,42.805,6.029,13.2976,4.59973,2469.993,2020-6-05T12:37:40Z
2020-06-05T10:39:59Z,42.805,6.029,13.2971,4.59973,2470.053,2020-6-05T12:40:43Z
2020-06-05T10:43:03Z,42.805,6.029,13.2968,4.59973,2469.993,2020-6-05T12:43:46Z
2020-06-05T10:46:06Z,42.805,6.029,13.2971,4.59973,2469.97,2020-6-05T12:46:49Z
2020-06-05T10:49:09Z,42.805,6.029,13.2976,4.59973,2469.993,2020-6-05T12:49:53Z
2020-06-05T10:52:12Z,42.805,6.029,13.2971,4.59974,2470.007,2020-6-05T12:52:56Z
2020-06-05T10:55:15Z,42.805,6.029,13.2972,4.59973,2470.017,2020-6-05T12:55:59Z
2020-06-05T10:58:19Z,42.805,6.029,13.2979,4.59973,2470.017,2020-6-05T12:59:02Z
2020-06-05T11:01:22Z,42.805,6.029,13.2971,4.59974,2469.993,2020-6-05T13:02:05Z
2020-06-05T11:04:25Z,42.805,6.029,13.2973,4.59975,2469.993,2020-6-05T13:05:09Z
2020-06-05T11:07:28Z,42.805,6.029,13.2974,4.59973,2469.993,2020-6-05T13:08:12Z
2020-06-05T11:10:32Z,42.805,6.029,13.2977,4.59973,2470.017,2020-6-05T13:11:15Z
2020-06-05T11:13:35Z,42.805,6.029,13.2975,4.59974,2470.007,2020-6-05T13:14:19Z
2020-06-05T11:16:38Z,42.805,6.029,13.2971,4.59973,2470.017,2020-6-05T13:17:22Z
2020-06-05T11:19:41Z,42.805,6.029,13.2974,4.59973,2469.993,2020-6-05T13:20:25Z
2020-06-05T11:22:45Z,42.805,6.029,13.2973,4.59974,2470.007,2020-6-05T13:23:28Z
2020-06-05T11:25:48Z,42.805,6.029,13.2972,4.59975,2470.007,2020-6-05T13:26:31Z
2020-06-05T11:28:51Z,42.805,6.029,13.2972,4.59973,2470.007,2020-6-05T13:29:35Z
2020-06-05T11:31:54Z,42.805,6.029,13.2975,4.59973,2469.97,2020-6-05T13:32:38Z
2020-06-05T11:34:58Z,42.805,6.029,13.2976,4.59973,2470.007,2020-6-05T13:35:41Z
2020-06-05T11:38:01Z,42.805,6.029,13.2976,4.59973,2469.984,2020-6-05T13:38:45Z
2020-06-05T11:41:04Z,42.805,6.029,13.2973,4.59973,2469.97,2020-6-05T13:41:48Z
2020-06-05T11:44:08Z,42.805,6.029,13.2974,4.59973,2469.97,2020-6-05T13:44:51Z
2020-06-05T11:47:11Z,42.805,6.029,13.2971,4.59974,2469.97,2020-6-05T13:47:54Z
2020-06-05T11:50:14Z,42.805,6.029,13.2974,4.59973,2469.96,2020-6-05T13:50:58Z
2020-06-05T11:53:17Z,42.805,6.029,13.2975,4.59973,2469.97,2020-6-05T13:54:01Z
2020-06-05T11:56:21Z,42.805,6.029,13.2974,4.59973,2469.97,2020-6-05T13:57:04Z
2020-06-05T11:59:24Z,42.805,6.029,13.2975,4.59974,2469.984,2020-6-05T14:00:07Z
2020-06-05T12:02:27Z,42.805,6.029,13.2976,4.59973,2469.97,2020-6-05T14:03:11Z
2020-06-05T12:05:30Z,42.805,6.029,13.2971,4.59974,2469.96,2020-6-05T14:06:14Z
2020-06-05T12:08:33Z,42.805,6.029,13.2971,4.59974,2469.96,2020-6-05T14:09:17Z
2020-06-05T12:11:37Z,42.805,6.029,13.2972,4.59974,2469.96,2020-6-05T14:12:20Z
2020-06-05T12:14:40Z,42.805,6.029,13.2976,4.59973,2469.947,2020-6-05T14:15:24Z
2020-06-05T12:17:43Z,42.805,6.029,13.2972,4.59973,2469.9,2020-6-05T14:18:27Z
2020-06-05T12:20:46Z,42.805,6.029,13.2973,4.59973,2469.937,2020-6-05T14:21:30Z
2020-06-05T12:23:50Z,42.805,6.029,13.2973,4.59973,2469.923,2020-6-05T14:24:33Z
2020-06-05T12:26:53Z,42.805,6.029,13.2973,4.59973,2469.97,2020-6-05T14:27:36Z
2020-06-05T12:29:56Z,42.805,6.029,13.2975,4.59975,2469.947,2020-6-05T14:30:40Z
2020-06-05T12:32:59Z,42.805,6.029,13.2976,4.59973,2469.97,2020-6-05T14:33:43Z
2020-06-05T12:36:03Z,42.805,6.029,13.2974,4.59973,2469.914,2020-6-05T14:36:46Z
2020-06-05T12:39:06Z,42.805,6.029,13.2972,4.59973,2469.937,2020-6-05T14:39:50Z
2020-06-05T12:42:09Z,42.805,6.029,13.2972,4.59974,2469.947,2020-6-05T14:42:53Z
2020-06-05T12:45:12Z,42.805,6.029,13.2974,4.59975,2469.947,2020-6-05T14:45:56Z
2020-06-05T12:48:15Z,42.805,6.029,13.2971,4.59973,2469.923,2020-6-05T14:48:59Z
2020-06-05T12:51:19Z,42.805,6.029,13.2974,4.59974,2469.947,2020-6-05T14:52:02Z
2020-06-05T12:54:22Z,42.805,6.029,13.2973,4.59973,2469.9,2020-6-05T14:55:06Z
2020-06-05T12:57:25Z,42.805,6.029,13.2974,4.59973,2469.947,2020-6-05T14:58:09Z
2020-06-05T13:00:28Z,42.805,6.029,13.2974,4.59973,2469.937,2020-6-05T15:01:12Z
2020-06-05T13:03:32Z,42.805,6.029,13.2976,4.59973,2469.937,2020-6-05T15:04:15Z
2020-06-05T13:06:35Z,42.805,6.029,13.2975,4.59973,2469.923,2020-6-05T15:07:18Z
2020-06-05T13:09:38Z,42.805,6.029,13.2975,4.59973,2469.96,2020-6-05T15:10:22Z
2020-06-05T13:12:41Z,42.805,6.029,13.2974,4.59973,2469.923,2020-6-05T15:13:25Z
2020-06-05T13:15:44Z,42.805,6.029,13.2973,4.59974,2469.947,2020-6-05T15:16:28Z
2020-06-05T13:18:48Z,42.805,6.029,13.2973,4.59974,2469.96,2020-6-05T15:19:31Z
2020-06-05T13:21:51Z,42.805,6.029,13.2974,4.59973,2469.923,2020-6-05T15:22:35Z
2020-06-05T13:24:54Z,42.805,6.029,13.2971,4.59973,2469.937,2020-6-05T15:25:38Z
2020-06-05T13:27:58Z,42.805,6.029,13.2972,4.59973,2469.914,2020-6-05T15:28:41Z
2020-06-05T13:31:01Z,42.805,6.029,13.2969,4.59973,2469.923,2020-6-05T15:31:44Z
2020-06-05T13:34:04Z,42.805,6.029,13.2974,4.59975,2469.923,2020-6-05T15:34:48Z
2020-06-05T13:37:07Z,42.805,6.029,13.2972,4.59975,2469.947,2020-6-05T15:37:51Z
2020-06-05T13:40:10Z,42.805,6.029,13.2970,4.59973,2469.923,2020-6-05T15:40:54Z
2020-06-05T13:43:14Z,42.805,6.029,13.2967,4.59974,2469.97,2020-6-05T15:43:57Z
2020-06-05T13:46:17Z,42.805,6.029,13.2971,4.59973,2469.947,2020-6-05T15:47:01Z
2020-06-05T13:49:21Z,42.805,6.029,13.2973,4.59973,2469.96,2020-6-05T15:50:04Z
2020-06-05T13:52:24Z,42.805,6.029,13.2977,4.59973,2469.947,2020-6-05T15:53:07Z
2020-06-05T13:55:27Z,42.805,6.029,13.2976,4.59973,2469.937,2020-6-05T15:56:11Z
2020-06-05T13:58:30Z,42.805,6.029,13.2971,4.59973,2469.9,2020-6-05T15:59:14Z
2020-06-05T14:01:33Z,42.805,6.029,13.2972,4.59973,2469.923,2020-6-05T16:02:17Z
2020-06-05T14:04:37Z,42.805,6.029,13.2973,4.59973,2469.937,2020-6-05T16:05:20Z
2020-06-05T14:07:40Z,42.805,6.029,13.2973,4.59974,2469.923,2020-6-05T16:08:23Z
2020-06-05T14:10:43Z,42.805,6.029,13.2972,4.59973,2469.923,2020-6-05T16:11:27Z
2020-06-05T14:13:46Z,42.805,6.029,13.2974,4.59975,2469.923,2020-6-05T16:14:30Z
2020-06-05T14:16:50Z,42.805,6.029,13.2974,4.59974,2469.937,2020-6-05T16:17:33Z
2020-06-05T14:19:53Z,42.805,6.029,13.2974,4.59973,2469.97,2020-6-05T16:20:36Z
2020-06-05T14:22:56Z,42.805,6.029,13.2971,4.59973,2469.937,2020-6-05T16:23:40Z
2020-06-05T14:25:59Z,42.805,6.029,13.2974,4.59974,2469.96,2020-6-05T16:26:43Z
2020-06-05T14:29:02Z,42.805,6.029,13.2971,4.59974,2469.96,2020-6-05T16:29:46Z
2020-06-05T14:32:06Z,42.805,6.029,13.2973,4.59973,2469.947,2020-6-05T16:32:49Z
2020-06-05T14:35:09Z,42.805,6.029,13.2974,4.59976,2469.947,2020-6-05T16:35:53Z
2020-06-05T14:38:12Z,42.805,6.029,13.2973,4.59974,2469.97,2020-6-05T16:38:56Z
2020-06-05T14:41:15Z,42.805,6.029,13.2972,4.59973,2470.007,2020-6-05T16:41:59Z
2020-06-05T14:44:19Z,42.805,6.029,13.2971,4.59974,2469.984,2020-6-05T16:45:02Z
2020-06-05T14:47:22Z,42.805,6.029,13.2970,4.59973,2469.923,2020-6-05T16:48:06Z
2020-06-05T14:50:25Z,42.805,6.029,13.2972,4.59975,2469.984,2020-6-05T16:51:09Z
2020-06-05T14:53:28Z,42.805,6.029,13.2971,4.59973,2469.947,2020-6-05T16:54:12Z
2020-06-05T14:56:32Z,42.805,6.029,13.2970,4.59973,2469.97,2020-6-05T16:57:15Z
2020-06-05T14:59:35Z,42.805,6.029,13.2975,4.59974,2469.947,2020-6-05T17:00:18Z
2020-06-05T15:02:38Z,42.805,6.029,13.2973,4.59973,2469.956,2020-6-05T17:03:22Z
2020-06-05T15:05:41Z,42.805,6.029,13.2974,4.59974,2469.97,2020-6-05T17:06:25Z
2020-06-05T15:08:44Z,42.805,6.029,13.2972,4.59973,2469.984,2020-6-05T17:09:28Z
2020-06-05T15:11:48Z,42.805,6.029,13.2976,4.59974,2470.007,2020-6-05T17:12:31Z
2020-06-05T15:14:51Z,42.805,6.029,13.2976,4.59973,2469.947,2020-6-05T17:15:34Z